Montgomery, NY

11:26 PM EDT on September 22, 2017 (GMT -0400)
Orange County

Weather History for KMGJ - July, 2013

Change the Weather History Date:

Tuesday, July 2, 2013

  Actual Average (KSWF) Record (KSWF)
Temperature  
Mean Temperature 76 °F -  
Max Temperature 84 °F 80 °F 96 °F (2002)
Min Temperature 69 °F 60 °F 41 °F (1978)
Cooling Degree Days 12    
Growing Degree Days 26 (Base 50)    
Moisture  
Dew Point 72 °F    
Average Humidity 86    
Maximum Humidity 100    
Minimum Humidity 67    
Precipitation  
Precipitation 0.07 in - - ()
Sea Level Pressure  
Sea Level Pressure 30.09 in    
Wind  
Wind Speed 3 mph (SSW)    
Max Wind Speed 13 mph    
Max Gust Speed 17 mph    
Visibility 8 miles    
Events Rain    
Averages and records for this station are not official NWS values.
T = Trace of Precipitation, MM = Missing Value Source: NWS Daily Summary

Daily Weather History Graph

Daily Weather History Graph

Search for Another Location

Airport or City:

Trip Planner

Search our weather history database for the weather conditions in past years. The results will help you decide how hot, cold, wet, or windy it might be!

Date:

Astronomy

Jul. 02, 2013 Rise Set
Actual Time 5:27 AM EDT 8:34 PM EDT
Civil Twilight 4:53 AM EDT 9:08 PM EDT
Nautical Twilight 4:10 AM EDT 9:51 PM EDT
Astronomical Twilight 3:19 AM EDT 10:42 PM EDT
Moon 1:30 AM EDT (7/2) 3:44 PM EDT (7/2)
Length of Visible Light 16h 14m
Length of Day
15h 06m
Waning Crescent, 26% of the Moon is Illuminated
Jul 2
Waning Crescent
Jul 8
New
Jul 15
First Quarter
Jul 22
Full
Jul 29
Last Quarter

Hourly Weather History & Observations

Time (EDT) Temp. Heat Index Dew Point Humidity Pressure Visibility Wind Dir Wind Speed Gust Speed Precip Events Conditions
12:01 AM 69.8 °F - 69.8 °F 100% 30.04 in 1.0 mi Calm Calm - N/A   Scattered Clouds
12:09 AM 69.8 °F - 68.0 °F 94% 30.04 in 0.8 mi Calm Calm - N/A   Mist
12:16 AM 69.8 °F - 68.0 °F 94% 30.04 in 1.2 mi Calm Calm - N/A   Partly Cloudy
12:26 AM 69.8 °F - 68.0 °F 94% 30.04 in 3.0 mi Calm Calm - N/A   Mostly Cloudy
12:54 AM 70.0 °F - 69.1 °F 97% 30.04 in 10.0 mi South 3.5 mph - N/A   Overcast
1:54 AM 73.0 °F - 71.1 °F 93% 30.04 in 10.0 mi South 3.5 mph - 0.00 in   Overcast
2:54 AM 73.0 °F - 71.1 °F 93% 30.04 in 8.0 mi Calm Calm - 0.03 in   Overcast
3:54 AM 72.0 °F - 71.1 °F 97% 30.04 in 7.0 mi Calm Calm - 0.02 in Rain Light Rain
4:36 AM 71.6 °F - 71.6 °F 100% 30.06 in 6.0 mi Calm Calm - 0.00 in   Overcast
4:43 AM 71.6 °F - 71.6 °F 100% 30.06 in 6.0 mi Calm Calm - 0.00 in   Overcast
4:54 AM 72.0 °F - 70.0 °F 93% 30.06 in 6.0 mi Calm Calm - 0.00 in   Overcast
5:27 AM 71.6 °F - 71.6 °F 100% 30.07 in 7.0 mi Calm Calm - N/A   Overcast
5:54 AM 72.0 °F - 71.1 °F 97% 30.07 in 5.0 mi Calm Calm - N/A   Overcast
6:54 AM 73.0 °F - 71.1 °F 93% 30.08 in 10.0 mi Calm Calm - N/A   Mostly Cloudy
7:38 AM 75.2 °F - 71.6 °F 89% 30.09 in 10.0 mi Calm Calm - N/A   Scattered Clouds
7:45 AM 75.2 °F - 73.4 °F 94% 30.09 in 10.0 mi SW 4.6 mph - N/A   Mostly Cloudy
7:54 AM 75.9 °F - 72.0 °F 87% 30.09 in 10.0 mi SSW 5.8 mph - N/A   Mostly Cloudy
8:45 AM 75.2 °F - 71.6 °F 89% 30.11 in 10.0 mi SSW 5.8 mph - N/A   Overcast
8:54 AM 75.9 °F - 72.0 °F 87% 30.10 in 10.0 mi South 4.6 mph - N/A   Overcast
9:10 AM 77.0 °F - 73.4 °F 89% 30.10 in 10.0 mi South 4.6 mph - N/A   Scattered Clouds
10:54 AM 80.1 °F 83.8 °F 72.0 °F 76% 30.11 in 10.0 mi South 10.4 mph - N/A   Mostly Cloudy
11:29 AM 82.4 °F 88.2 °F 73.4 °F 74% 30.11 in 10.0 mi SSW 10.4 mph - N/A   Mostly Cloudy
11:54 AM 81.0 °F 85.2 °F 72.0 °F 74% 30.11 in 10.0 mi South 9.2 mph - N/A   Mostly Cloudy
12:54 PM 82.9 °F 88.8 °F 73.0 °F 72% 30.11 in 10.0 mi South 8.1 mph - 0.00 in   Mostly Cloudy
1:47 PM 82.4 °F 87.2 °F 71.6 °F 70% 30.10 in 10.0 mi South 12.7 mph - N/A   Mostly Cloudy
1:54 PM 82.0 °F 86.7 °F 72.0 °F 71% 30.09 in 10.0 mi South 9.2 mph - N/A   Mostly Cloudy
2:02 PM 82.4 °F 87.2 °F 71.6 °F 70% 30.10 in 10.0 mi South 11.5 mph - N/A   Mostly Cloudy
2:54 PM 82.0 °F 86.7 °F 72.0 °F 71% 30.09 in 10.0 mi SSW 10.4 mph 17.3 mph N/A   Scattered Clouds
3:54 PM 84.0 °F 89.6 °F 72.0 °F 67% 30.08 in 10.0 mi SSW 10.4 mph - N/A   Scattered Clouds
4:54 PM 84.0 °F 90.2 °F 73.0 °F 69% 30.07 in 10.0 mi SSW 11.5 mph - N/A   Mostly Cloudy
5:54 PM 82.0 °F 86.7 °F 72.0 °F 71% 30.09 in 10.0 mi South 9.2 mph - N/A   Clear
6:54 PM 81.0 °F 85.8 °F 73.0 °F 77% 30.10 in 10.0 mi South 5.8 mph - N/A   Clear
7:54 PM 80.1 °F 84.2 °F 73.0 °F 79% 30.11 in 10.0 mi SSW 6.9 mph - N/A   Clear
8:54 PM 75.9 °F - 72.0 °F 87% 30.13 in 10.0 mi SW 5.8 mph - 0.02 in Rain Light Rain
9:54 PM 75.0 °F - 73.0 °F 94% 30.15 in 10.0 mi Calm Calm - 0.00 in   Clear
10:54 PM 73.9 °F - 72.0 °F 93% 30.15 in 10.0 mi Calm Calm - 0.00 in   Scattered Clouds
11:54 PM 73.0 °F - 72.0 °F 96% 30.15 in 10.0 mi Calm Calm - 0.00 in   Scattered Clouds